Location: Little Chesterford
(52.0500°N, 0.1833°E)
Time: 11:40:28
(UTC+00:00)

Feng Yun 1-1 Rocket - Pass Details

Date: 26 September 2023
Orbit: 829 x 933 km, 99.1° (Epoch: 28 November)

Event Time Altitude Azimuth Distance (km) Brightness Sun altitude
Exits shadow 19:10:48 - 158° (SSE) 3,499 7.0 -13.3°
Reaches altitude 10° 19:13:04 10° 157° (SSE) 2,614 6.4 -13.6°
Maximum altitude 19:18:55 80° 71° (ENE) 927 4.3 -14.5°
Drops below altitude 10° 19:24:40 10° 346° (NNW) 2,571 7.1 -15.3°
Sets 19:27:02 0° 345° (NNW) 3,499 7.9 -15.7°
